sat.trackr.live / text

‹ back to catalog

STARLINK-34895

NORAD 65349 · 2025-189AC

PAYLOAD ACTIVE UNKNOWN

§ Identity

Operator
Country
US
Launch date
2025-08-27
Launch site
AFETR
Launch vehicle
Mass (kg)
RCS (m²)

Purposes: comms

External: N2YO · Heavens-Above · Gunter

§ Orbital elements

Epoch: 2026-09-20T19:33:34.969248Z

Period
94.01 min
Inclination
53.1588°
Eccentricity
0.0000929
Mean motion
15.31718541 rev/d
Perigee alt
470.0 km
Apogee alt
471.3 km
Semi-major
6,848.8 km
B*
5.2862e-4
RAAN
18.8233°
Arg perigee
87.6750°
Mean anomaly
272.4358°
Rev number
6,096

§ Raw data

STARLINK-348951 65349U 25189AC  26263.81498807  .00016084  00000+0  52862-3 0  99902 65349  53.1588  18.8233 0000929  87.6750 272.4358 15.31718541 60965

JSON: /api/v1/satellites/65349 · /tle

For live sub-satellite position, see the globe view (requires WebGL).

§ Visibility from observer

Set your observer location to see the next 7 days of passes ≥ 10°. The values pass through the URL so the page stays shareable.

No JS? Fill the form by hand. The geolocation button needs JavaScript.